Schneifelwetter: Wetterstation Hallschlag, 537 m . NN
Wetterdaten: Sonntag, 14.08.2011
Datum Zeit Temp. A. Feuchte A. Luftdruck Regen Wind Richtung Richtung Sonnenschein Helligkeit T Regen Taupunkt Windchill
14.08.2011 00:00 15,5 C 95 % 1009 hPa 0,0 l/m 5,2 km/h (1 Bft) S-SW 205 0 min 0 lux 0 min 14,7 C 15,5 C
14.08.2011 00:15 15,5 C 95 % 1009 hPa 0,0 l/m 13,8 km/h (3 Bft) SW22.5 220 0 min 0 lux 0 min 14,7 C 12,2 C
14.08.2011 00:30 15,4 C 95 % 1009 hPa 0,0 l/m 14,2 km/h (3 Bft) S-SW45 210 0 min 0 lux 0 min 14,6 C 11,9 C
14.08.2011 00:45 15,4 C 95 % 1009 hPa 0,0 l/m 9,0 km/h (2 Bft) SW45 220 0 min 0 lux 0 min 14,6 C 14,0 C
14.08.2011 01:00 15,4 C 96 % 1009 hPa 0,0 l/m 11,6 km/h (2 Bft) SW22.5 235 0 min 0 lux 0 min 14,8 C 12,9 C
14.08.2011 01:15 15,4 C 96 % 1009 hPa 0,0 l/m 11,1 km/h (2 Bft) W-SW45 245 0 min 0 lux 0 min 14,8 C 13,1 C
14.08.2011 01:30 15,4 C 96 % 1009 hPa 0,0 l/m 7,8 km/h (2 Bft) SW 235 0 min 0 lux 0 min 14,8 C 14,6 C
14.08.2011 01:45 15,4 C 96 % 1009 hPa 0,3 l/m 9,2 km/h (2 Bft) W-SW22.5 245 0 min 0 lux 15 min 14,8 C 13,9 C
14.08.2011 02:00 15,4 C 96 % 1008 hPa 0,0 l/m 0,0 km/h (0 Bft) SW 215 0 min 0 lux 0 min 14,8 C 15,4 C
14.08.2011 02:15 15,3 C 96 % 1008 hPa 0,0 l/m 0,1 km/h (0 Bft) SW 215 0 min 0 lux 0 min 14,7 C 15,3 C
14.08.2011 02:30 15,3 C 96 % 1008 hPa 0,0 l/m 0,0 km/h (0 Bft) SW 215 0 min 0 lux 0 min 14,7 C 15,3 C
14.08.2011 02:45 15,3 C 96 % 1008 hPa 0,0 l/m 7,8 km/h (2 Bft) SW22.5 220 0 min 0 lux 0 min 14,7 C 14,5 C
14.08.2011 03:00 15,4 C 96 % 1008 hPa 0,0 l/m 8,5 km/h (2 Bft) SW 235 0 min 0 lux 0 min 14,8 C 14,3 C
14.08.2011 03:15 15,4 C 96 % 1008 hPa 0,0 l/m 0,7 km/h (0 Bft) S22.5 190 0 min 0 lux 0 min 14,8 C 15,4 C
14.08.2011 03:30 15,4 C 96 % 1008 hPa 0,0 l/m 1,5 km/h (1 Bft) S-SW 200 0 min 0 lux 0 min 14,8 C 15,4 C
14.08.2011 03:45 15,4 C 96 % 1007 hPa 0,0 l/m 5,9 km/h (2 Bft) S 175 0 min 0 lux 0 min 14,8 C 15,4 C
14.08.2011 04:00 15,4 C 96 % 1007 hPa 0,0 l/m 8,9 km/h (2 Bft) S-SO22.5 165 0 min 0 lux 0 min 14,8 C 14,1 C
14.08.2011 04:15 15,4 C 97 % 1007 hPa 0,0 l/m 6,7 km/h (2 Bft) S45 175 0 min 0 lux 0 min 14,9 C 15,2 C
14.08.2011 04:30 15,4 C 97 % 1007 hPa 0,0 l/m 9,2 km/h (2 Bft) S-SO 165 0 min 0 lux 0 min 14,9 C 13,9 C
14.08.2011 04:45 15,4 C 97 % 1007 hPa 0,0 l/m 7,5 km/h (2 Bft) S22.5 175 0 min 0 lux 0 min 14,9 C 14,8 C
14.08.2011 05:01 15,6 C 97 % 1007 hPa 0,0 l/m 12,5 km/h (3 Bft) S45 190 0 min 0 lux 0 min 15,1 C 12,8 C
14.08.2011 05:16 15,6 C 97 % 1006 hPa 0,0 l/m 16,1 km/h (3 Bft) S45 175 0 min 0 lux 0 min 15,1 C 11,6 C
14.08.2011 05:31 15,6 C 97 % 1006 hPa 0,0 l/m 11,3 km/h (2 Bft) S45 180 0 min 0 lux 0 min 15,1 C 13,2 C
14.08.2011 05:46 15,6 C 97 % 1006 hPa 0,0 l/m 15,6 km/h (3 Bft) S45 185 0 min 0 lux 0 min 15,1 C 11,7 C
14.08.2011 06:01 15,7 C 97 % 1005 hPa 0,0 l/m 16,7 km/h (3 Bft) S-SO22.5 165 0 min 0 lux 0 min 15,2 C 11,5 C
14.08.2011 06:16 15,7 C 97 % 1005 hPa 0,0 l/m 22,5 km/h (4 Bft) S22.5 170 0 min 35 lux 0 min 15,2 C 10,1 C
14.08.2011 06:30 15,7 C 98 % 1005 hPa 0,0 l/m 17,1 km/h (3 Bft) S45 175 0 min 93 lux 0 min 15,4 C 11,4 C
14.08.2011 06:45 15,7 C 98 % 1005 hPa 0,0 l/m 15,7 km/h (3 Bft) S22.5 170 0 min 179 lux 0 min 15,4 C 11,8 C
14.08.2011 07:00 15,8 C 98 % 1005 hPa 0,6 l/m 20,5 km/h (4 Bft) S22.5 190 0 min 649 lux 15 min 15,5 C 10,7 C
14.08.2011 07:15 15,8 C 98 % 1005 hPa 0,6 l/m 17,5 km/h (3 Bft) S45 170 0 min 1,41 klux 15 min 15,5 C 11,4 C
14.08.2011 07:30 16,0 C 98 % 1005 hPa 0,9 l/m 19,1 km/h (3 Bft) S-SW45 205 0 min 1,92 klux 15 min 15,7 C 11,3 C
14.08.2011 07:45 16,0 C 98 % 1005 hPa 0,0 l/m 15,8 km/h (3 Bft) S-SW45 195 0 min 2,55 klux 0 min 15,7 C 12,2 C
14.08.2011 08:00 16,1 C 97 % 1005 hPa 1,5 l/m 15,6 km/h (3 Bft) S45 175 0 min 2,49 klux 15 min 15,6 C 12,3 C
14.08.2011 08:15 16,1 C 97 % 1005 hPa 0,9 l/m 21,3 km/h (4 Bft) S-SW45 195 0 min 1,41 klux 15 min 15,6 C 10,9 C
14.08.2011 08:30 16,3 C 97 % 1005 hPa 1,8 l/m 21,6 km/h (4 Bft) S67.5 185 0 min 6,45 klux 15 min 15,8 C 11,1 C
14.08.2011 08:45 16,3 C 97 % 1005 hPa 0,9 l/m 26,7 km/h (4 Bft) S45 185 0 min 4,96 klux 15 min 15,8 C 10,1 C
14.08.2011 09:00 16,4 C 97 % 1005 hPa 2,7 l/m 35,4 km/h (5 Bft) S-SW45 195 0 min 7,23 klux 15 min 15,9 C 8,9 C
14.08.2011 09:15 16,8 C 97 % 1005 hPa 0,3 l/m 36,2 km/h (5 Bft) S-SW45 205 0 min 12,5 klux 15 min 16,3 C 9,4 C
14.08.2011 09:30 16,7 C 97 % 1005 hPa 0,0 l/m 35,7 km/h (5 Bft) W-SW45 250 0 min 10,6 klux 0 min 16,2 C 9,3 C
14.08.2011 09:45 16,8 C 97 % 1005 hPa 0,3 l/m 28,8 km/h (4 Bft) SW67.5 235 0 min 15,6 klux 15 min 16,3 C 10,4 C
14.08.2011 10:00 17,1 C 96 % 1005 hPa 0,0 l/m 32,3 km/h (5 Bft) W-SW45 245 0 min 20,1 klux 0 min 16,5 C 10,3 C
14.08.2011 10:15 16,8 C 95 % 1005 hPa 0,0 l/m 31,3 km/h (5 Bft) W-SW45 240 0 min 19,0 klux 0 min 16,0 C 10,0 C
14.08.2011 10:30 17,0 C 95 % 1005 hPa 0,0 l/m 30,2 km/h (5 Bft) SW67.5 225 0 min 21,3 klux 0 min 16,2 C 10,5 C
14.08.2011 10:45 16,8 C 94 % 1005 hPa 0,0 l/m 33,5 km/h (5 Bft) W-SW45 240 0 min 14,3 klux 0 min 15,8 C 9,7 C
14.08.2011 11:00 16,7 C 94 % 1005 hPa 0,0 l/m 30,4 km/h (5 Bft) S-SW45 210 0 min 13,5 klux 0 min 15,7 C 10,0 C
14.08.2011 11:15 16,6 C 94 % 1005 hPa 0,0 l/m 34,4 km/h (5 Bft) SW67.5 230 0 min 12,9 klux 0 min 15,6 C 9,3 C
14.08.2011 11:30 16,8 C 95 % 1006 hPa 0,0 l/m 27,2 km/h (4 Bft) SW67.5 225 0 min 16,7 klux 0 min 16,0 C 10,7 C
14.08.2011 11:45 16,8 C 95 % 1006 hPa 0,0 l/m 28,8 km/h (4 Bft) W-SW67.5 245 0 min 15,1 klux 0 min 16,0 C 10,4 C
14.08.2011 12:00 17,0 C 95 % 1006 hPa 0,0 l/m 25,1 km/h (4 Bft) W-SW45 250 0 min 18,6 klux 0 min 16,2 C 11,3 C
14.08.2011 12:15 17,3 C 95 % 1006 hPa 0,0 l/m 22,6 km/h (4 Bft) W-SW22.5 250 0 min 46,7 klux 0 min 16,5 C 12,2 C
14.08.2011 12:30 17,6 C 93 % 1006 hPa 0,0 l/m 28,8 km/h (4 Bft) SW45 225 0 min 36,6 klux 0 min 16,5 C 11,5 C
14.08.2011 12:45 17,5 C 93 % 1006 hPa 0,0 l/m 29,5 km/h (5 Bft) W45 260 0 min 29,5 klux 0 min 16,4 C 11,3 C
14.08.2011 13:00 17,1 C 92 % 1006 hPa 0,0 l/m 39,6 km/h (6 Bft) W45 265 0 min 22,7 klux 0 min 15,8 C 9,5 C
14.08.2011 13:15 16,9 C 92 % 1006 hPa 0,0 l/m 25,7 km/h (4 Bft) W45 265 0 min 30,4 klux 0 min 15,6 C 11,1 C
14.08.2011 13:30 16,8 C 91 % 1007 hPa 0,0 l/m 22,2 km/h (4 Bft) W22.5 265 0 min 31,1 klux 0 min 15,3 C 11,6 C
14.08.2011 13:46 17,6 C 92 % 1007 hPa 0,0 l/m 21,0 km/h (4 Bft) W22.5 260 0 min 52,2 klux 0 min 16,3 C 12,9 C
14.08.2011 14:00 18,9 C 90 % 1007 hPa 0,0 l/m 26,6 km/h (4 Bft) W45 260 14 min 115 klux 0 min 17,2 C 13,6 C
14.08.2011 14:15 19,0 C 86 % 1007 hPa 0,0 l/m 29,1 km/h (5 Bft) W45 260 0 min 54,6 klux 0 min 16,6 C 13,4 C
14.08.2011 14:30 18,8 C 86 % 1007 hPa 0,0 l/m 25,8 km/h (4 Bft) W22.5 260 0 min 44,9 klux 0 min 16,4 C 13,6 C
14.08.2011 14:45 18,2 C 83 % 1007 hPa 0,0 l/m 36,5 km/h (5 Bft) W22.5 265 0 min 50,4 klux 0 min 15,3 C 11,4 C
14.08.2011 15:00 17,2 C 86 % 1008 hPa 0,0 l/m 29,3 km/h (5 Bft) W22.5 260 0 min 16,5 klux 0 min 14,8 C 10,9 C
14.08.2011 15:16 16,8 C 87 % 1008 hPa 0,0 l/m 25,2 km/h (4 Bft) W22.5 270 0 min 22,0 klux 0 min 14,6 C 11,0 C
14.08.2011 15:30 17,1 C 87 % 1008 hPa 0,0 l/m 28,6 km/h (4 Bft) W22.5 265 0 min 46,3 klux 0 min 14,9 C 10,9 C
14.08.2011 15:45 17,6 C 86 % 1008 hPa 0,0 l/m 25,7 km/h (4 Bft) W22.5 260 15 min 77,2 klux 0 min 15,2 C 12,0 C
14.08.2011 16:00 18,1 C 83 % 1008 hPa 0,0 l/m 24,6 km/h (4 Bft) W22.5 265 0 min 44,7 klux 0 min 15,2 C 12,9 C
14.08.2011 16:15 17,6 C 84 % 1008 hPa 0,0 l/m 24,7 km/h (4 Bft) W45 270 0 min 31,1 klux 0 min 14,9 C 12,2 C
14.08.2011 16:31 17,6 C 84 % 1008 hPa 5,1 l/m 31,0 km/h (5 Bft) W67.5 265 0 min 36,3 klux 16 min 14,9 C 11,2 C
14.08.2011 16:45 16,8 C 84 % 1009 hPa 0,0 l/m 29,6 km/h (5 Bft) W45 265 0 min 21,0 klux 0 min 14,1 C 10,3 C
14.08.2011 17:00 16,6 C 85 % 1009 hPa 0,0 l/m 31,2 km/h (5 Bft) W45 265 0 min 35,3 klux 0 min 14,1 C 9,8 C
14.08.2011 17:15 17,4 C 85 % 1009 hPa 0,0 l/m 22,0 km/h (4 Bft) W22.5 265 0 min 46,3 klux 0 min 14,8 C 12,4 C
14.08.2011 17:30 17,3 C 82 % 1009 hPa 0,0 l/m 21,9 km/h (4 Bft) W22.5 280 0 min 33,1 klux 0 min 14,2 C 12,3 C
14.08.2011 17:45 16,9 C 83 % 1009 hPa 0,0 l/m 23,8 km/h (4 Bft) W22.5 270 0 min 21,7 klux 0 min 14,0 C 11,4 C
14.08.2011 18:01 16,5 C 84 % 1009 hPa 0,0 l/m 21,6 km/h (4 Bft) W22.5 265 0 min 11,9 klux 0 min 13,8 C 11,3 C
14.08.2011 18:15 16,0 C 85 % 1009 hPa 0,0 l/m 19,7 km/h (3 Bft) W45 260 0 min 10,1 klux 0 min 13,5 C 11,1 C
14.08.2011 18:30 15,9 C 86 % 1009 hPa 0,0 l/m 23,3 km/h (4 Bft) W22.5 260 0 min 15,5 klux 0 min 13,6 C 10,2 C
14.08.2011 18:45 16,2 C 86 % 1009 hPa 0,0 l/m 13,9 km/h (3 Bft) W-SW45 255 0 min 16,4 klux 0 min 13,9 C 13,0 C
14.08.2011 19:00 16,1 C 85 % 1009 hPa 0,0 l/m 17,1 km/h (3 Bft) W-SW22.5 255 0 min 12,6 klux 0 min 13,6 C 11,9 C
14.08.2011 19:15 16,1 C 86 % 1009 hPa 0,0 l/m 17,3 km/h (3 Bft) W22.5 265 0 min 19,0 klux 0 min 13,8 C 11,9 C
14.08.2011 19:31 16,3 C 86 % 1009 hPa 0,0 l/m 9,6 km/h (2 Bft) S-SW45 195 0 min 11,2 klux 0 min 14,0 C 14,7 C
14.08.2011 19:45 16,1 C 86 % 1009 hPa 0,0 l/m 13,5 km/h (3 Bft) W-SW22.5 255 0 min 11,6 klux 0 min 13,8 C 13,0 C
14.08.2011 20:00 16,0 C 86 % 1009 hPa 0,0 l/m 10,0 km/h (2 Bft) W-SW 250 0 min 9,1 klux 0 min 13,7 C 14,2 C
14.08.2011 20:15 15,7 C 87 % 1009 hPa 0,0 l/m 10,4 km/h (2 Bft) W-SW 250 0 min 4,48 klux 0 min 13,5 C 13,7 C
14.08.2011 20:30 15,4 C 88 % 1009 hPa 0,0 l/m 7,0 km/h (2 Bft) W-SW22.5 245 0 min 3,85 klux 0 min 13,4 C 15,1 C
14.08.2011 20:45 15,1 C 88 % 1009 hPa 0,0 l/m 1,2 km/h (1 Bft) SW 225 0 min 1,59 klux 0 min 13,1 C 15,1 C
14.08.2011 21:01 14,8 C 89 % 1009 hPa 0,0 l/m 4,5 km/h (1 Bft) SW 225 0 min 842 lux 0 min 13,0 C 14,8 C
14.08.2011 21:15 14,5 C 89 % 1010 hPa 0,0 l/m 0,8 km/h (0 Bft) SW 225 0 min 316 lux 0 min 12,7 C 14,5 C
14.08.2011 21:30 14,0 C 89 % 1010 hPa 0,0 l/m 4,0 km/h (1 Bft) SW 225 0 min 44 lux 0 min 12,2 C 14,0 C
14.08.2011 21:45 13,4 C 90 % 1010 hPa 0,0 l/m 0,0 km/h (0 Bft) SW 225 0 min 4 lux 0 min 11,8 C 13,4 C
14.08.2011 22:00 13,0 C 91 % 1010 hPa 0,0 l/m 0,0 km/h (0 Bft) SW 225 0 min 0 lux 0 min 11,6 C 13,0 C
14.08.2011 22:15 12,6 C 91 % 1010 hPa 0,0 l/m 0,0 km/h (0 Bft) SW 225 0 min 0 lux 0 min 11,2 C 12,6 C
14.08.2011 22:30 12,3 C 91 % 1010 hPa 0,0 l/m 0,0 km/h (0 Bft) SW 225 0 min 0 lux 0 min 10,9 C 12,3 C
14.08.2011 22:45 11,7 C 92 % 1010 hPa 0,0 l/m 2,4 km/h (1 Bft) SW 225 0 min 0 lux 0 min 10,4 C 11,7 C
14.08.2011 23:00 11,5 C 93 % 1010 hPa 0,0 l/m 0,3 km/h (0 Bft) SW 225 0 min 0 lux 0 min 10,4 C 11,5 C
14.08.2011 23:15 11,0 C 93 % 1010 hPa 0,0 l/m 0,0 km/h (0 Bft) SW 225 0 min 0 lux 0 min 9,9 C 11,0 C
14.08.2011 23:30 10,8 C 94 % 1010 hPa 0,0 l/m 0,0 km/h (0 Bft) SW 225 0 min 0 lux 0 min 9,9 C 10,8 C
14.08.2011 23:45 10,6 C 94 % 1011 hPa 0,0 l/m 0,0 km/h (0 Bft) SW 225 0 min 0 lux 0 min 9,7 C 10,6 C
14.08.2011 23:54 10,6 C 95 % 1011 hPa 0,0 l/m 0,0 km/h (0 Bft) SW 225 0 min 0 lux 0 min 9,8 C 10,6 C
_ Min-Zeit 23:45 17:30 06:01 - 02:00 - - - - - 23:45 09:00
Minimum _ 10,6 C 82 % 1005 hPa - 0,0 km/h (0 Bft) - - - - - 9,7 C 8,9 C
_ Max-Zeit 14:15 06:30 23:45 16:31 13:00 - - 15:45 14:00 16:31 14:00 00:00
Maximum _ 19,0 C 98 % 1011 hPa 5,1 l/m 39,6 km/h
W (6 Bft)
- - 15 min 115 klux 16 min 17,2 C 15,5 C
Durchschnitt _ 15,8 C 92 % 1008 hPa #15,9 l/m 16,9 km/h (3 Bft) W - #29 min. 13,3 klux #3:01 h 14,6 C 12,2 C